This demonstration page uses our WeatherBlox Daily Observations layout. Learn more.

Left ArrowRight Arrow

Hourly Observations for June 27, 2022

Temp ( °F °C ) Dew Point ( °F °C ) Humidity (%) Winds ( mph kmh ) Pressure ( in mb ) Visibility ( mi km ) Precip ( " mm )
12:56 am 00:56 Clear 59 15 52 11.1 78 78 VRB 5 7 30.36 1028 9 14 0.00 0.00
1:56 am 01:56 Partly Cloudy 59 15 50 10 72 72 SSE 6 9 30.35 1028 10 16 0.00 0.00
2:56 am 02:56 Cloudy 59 15 52 11.1 78 78 Calm 30.34 1028 10 16 0.00 0.00
3:56 am 03:56 Cloudy 60 15.6 53 11.7 78 78 ESE 3 6 30.33 1027 10 16 0.00 0.00
4:56 am 04:56 Cloudy 60 15.6 53 11.7 78 78 E 5 7 30.33 1027 10 16 0.00 0.00
5:56 am 05:56 Clear 58 14.4 50 10 75 75 S 6 9 30.34 1027 10 16 0.00 0.00
6:56 am 06:56 Mostly Cloudy 59 15 53 11.7 81 81 S 5 7 30.34 1027 10 16 0.00 0.00
7:56 am 07:56 Cloudy 64 17.8 51 10.6 63 63 SSW 5 7 30.35 1028 10 16 0.00 0.00
8:56 am 08:56 Cloudy 65 18.3 54 12.2 68 68 SE 5 7 30.35 1028 10 16 0.00 0.00
9:56 am 09:56 Cloudy 68 20 54 12.2 61 61 SSE 6 9 30.35 1028 10 16 0.00 0.00
10:56 am 10:56 Cloudy 72 22.2 51 10.6 48 48 S 7 11 30.34 1028 10 16 0.00 0.00
11:56 am 11:56 Cloudy 74 23.3 48 8.9 40 40 S 9 15 30.34 1027 10 16 0.00 0.00
12:56 pm 12:56 Cloudy 75 23.9 50 10 41 41 S 14 22 30.32 1027 10 16 0.00 0.00
1:56 pm 13:56 Mostly Cloudy 76 24.4 51 10.6 42 42 S 12 19 30.29 1026 10 16 0.00 0.00
2:56 pm 14:56 Cloudy 78 25.6 51 10.6 39 39 S 13 20 30.27 1025 10 16 0.00 0.00
3:56 pm 15:56 Sunny 79 26.1 52 11.1 39 39 S 17 28 30.23 1024 10 16 0.00 0.00
4:56 pm 16:56 Sunny 79 26.1 49 9.4 35 35 S 13 20 30.22 1023 10 16 0.00 0.00
5:56 pm 17:56 Sunny 78 25.6 52 11.1 40 40 SSE 16 26 30.20 1023 10 16 0.00 0.00
6:56 pm 18:56 Sunny 79 26.1 50 10 36 36 S 16 26 30.18 1022 10 16 0.00 0.00
7:56 pm 19:56 Sunny 76 24.4 50 10 40 40 S 15 24 30.18 1022 10 16 0.00 0.00
8:56 pm 20:56 Sunny 69 20.6 51 10.6 53 53 S 9 15 30.19 1022 10 16 0.00 0.00
9:56 pm 21:56 Clear 67 19.4 50 10 55 55 SSW 12 19 30.20 1023 10 16 0.00 0.00
10:56 pm 22:56 Clear 66 18.9 48 8.9 52 52 SSW 14 22 30.21 1023 10 16 0.00 0.00
11:56 pm 23:56 Clear 63 17.2 49 9.4 60 60 SSW 15 24 30.20 1023 10 16 0.00 0.00

Powered by AerisWeather